Inquirer Daily News

Weather

Get conditions and forecasts for any City, State, ZIP code or Country:  
Northeast Philadelphia, PA
on Sunday, February 10, 2013

Sunday
Previous Day Next Day
Daily Summary
 ActualAverage (KTTN)Record (KTTN)
Temperature
Mean Temperature °F 33°F  
Max Temperature 39°F 41°F 67°F (1925)
Min Temperature 16°F 25°F -10°F (1899)
Degree Days
Heating Degree Days 38 32  
Month to date heating degree days 326  
Since 1 July heating degree days 3272  
Cooling Degree Days 0 0  
Month to date cooling degree days 0  
Year to date cooling degree days 0  
Moisture
Dew Point 12°F   
Average Humidity 52    
Maximum Humidity 71    
Minimum Humidity 32    
Precipitation
Precipitation 0.00 in 0.08 in 1.20 in (2010)
Month to date precipitation 0.73  
Year to date precipitation 3.89  
Wind
Wind Speed 5 mph   
Max Wind Speed 9 mph   
Max Gust Speed mph   
Visibility 10 miles   
Events     

Key: T is trace of precipitation, MM is missing value
Source: NWS Daily Summary
Time(EST)TemperatureDew PointHumidity Pressure Visibility Wind DirectionWind SpeedGust SpeedPrecipitationEvents Conditions
12:54 AM 21.0°F 8.1°F 57% 30.41 in 10.0 miles NNW 8.1 mph - N/A   Clear
1:54 AM 19.9°F 8.1°F 60% 30.43 in 10.0 miles NNW 6.9 mph - N/A   Clear
2:54 AM 19.0°F 8.1°F 62% 30.43 in 10.0 miles NNW 8.1 mph - N/A   Clear
3:54 AM 19.0°F 9.0°F 65% 30.43 in 10.0 miles NW 9.2 mph - N/A   Clear
4:54 AM 19.0°F 9.0°F 65% 30.42 in 10.0 miles North 5.8 mph - N/A   Clear
5:54 AM 19.0°F 8.1°F 62% 30.44 in 10.0 miles Calm Calm - N/A   Clear
6:54 AM 16.0°F 8.1°F 71% 30.46 in 10.0 miles Calm Calm - N/A   Clear
7:54 AM 19.9°F 10.0°F 65% 30.50 in 10.0 miles WNW 3.5 mph - N/A   Clear
8:54 AM 21.9°F 10.9°F 63% 30.52 in 10.0 miles NNW 5.8 mph - N/A   Clear
9:54 AM 25.0°F 10.0°F 53% 30.52 in 10.0 miles Calm Calm - N/A   Clear
10:54 AM 27.0°F 9.0°F 47% 30.52 in 10.0 miles Calm Calm - N/A   Clear
11:54 AM 28.9°F 10.9°F 47% 30.48 in 10.0 miles Calm Calm - N/A   Clear
12:54 PM 32.0°F 10.9°F 42% 30.45 in 10.0 miles Calm Calm - N/A   Clear
1:54 PM 35.1°F 12.0°F 39% 30.43 in 10.0 miles Variable 3.5 mph - N/A   Clear
2:54 PM 37.9°F 12.0°F 35% 30.41 in 10.0 miles SW 3.5 mph - N/A   Clear
3:54 PM 39.0°F 10.9°F 32% 30.40 in 10.0 miles SSE 3.5 mph - N/A   Clear
4:54 PM 39.0°F 10.9°F 32% 30.39 in 10.0 miles SE 3.5 mph - N/A   Clear
5:54 PM 36.0°F 10.9°F 36% 30.40 in 10.0 miles Calm Calm - N/A   Clear
6:54 PM 34.0°F 12.0°F 40% 30.40 in 10.0 miles SE 3.5 mph - N/A   Clear
7:54 PM 34.0°F 15.1°F 46% 30.39 in 10.0 miles Calm Calm - N/A   Clear
8:54 PM 34.0°F 18.0°F 52% 30.38 in 10.0 miles SE 3.5 mph - N/A   Clear
9:54 PM 33.1°F 18.0°F 54% 30.38 in 10.0 miles South 4.6 mph - N/A   Clear
10:54 PM 32.0°F 18.0°F 56% 30.34 in 10.0 miles South 3.5 mph - N/A   Clear
11:54 PM 32.0°F 21.0°F 64% 30.34 in 10.0 miles SE 3.5 mph - N/A   Clear
Astronomy
Sunrise:06:58 AM (EST) Moon Rise:06:47 AM (EST)2/10
Sunset:05:30 PM (EST) Moon Set:06:18 PM (EST)2/10
Moon Phase
Feb. 10 Feb. 17 Feb. 25 Mar. 04 Mar. 11

Copyright © 2014 The Weather Underground, Inc.